Location: *
(41.7492°S, 135.4150°W)
Time: 18:25:28
(UTC+00:00)

CZ-4B R/B - Pass Details

Date: 20 September 2021
Orbit: 486 x 650 km, 97.9° (Epoch: 15 October)

Event Time Altitude Azimuth Distance (km) Brightness Sun altitude
Rises 14:03:49 0° 8° (N) 2,963 6.6 -10.1°
Reaches altitude 10° 14:06:02 10° 6° (N) 2,059 5.7 -9.7°
Maximum altitude 14:10:33 70° 282° (WNW) 697 3.1 -8.8°
Drops below altitude 10° 14:15:02 10° 197° (SSW) 2,049 5.6 -8.0°
Sets 14:17:14 0° 195° (SSW) 2,946 6.4 -7.6°
